Location: North Bay
(46.3091°N, 79.4608°W)
Time: 15:01:00
(UTC-04:00)

ISS - Visible Passes

Search period start: 06 July 2020 00:00
Search period end: 16 July 2020 00:00
Orbit: 417 x 421 km, 51.6° (Epoch: 07 July)

Date Brightness Start Highest point End Pass type
(mag) Time Alt. Az. Time Alt. Az. Time Alt. Az.
06 Jul -2.0 02:02:42 23° E 02:02:42 23° E 02:04:23 10° ENE visible
06 Jul -3.0 03:35:37 17° W 03:38:02 51° NNW 03:41:20 10° ENE visible
07 Jul -3.6 02:49:29 44° W 02:50:22 70° NNW 02:53:44 10° ENE visible
07 Jul -2.0 04:24:28 10° WNW 04:27:32 32° N 04:30:37 10° ENE visible
08 Jul -3.5 02:03:17 60° ENE 02:03:17 60° ENE 02:06:07 10° ENE visible
08 Jul -2.2 03:36:39 10° WNW 03:39:47 35° N 03:42:55 10° ENE visible
09 Jul -1.9 01:17:01 23° ENE 01:17:01 23° ENE 01:18:27 10° ENE visible
09 Jul -2.5 02:49:56 18° WNW 02:52:03 41° NNW 02:55:16 10° ENE visible
09 Jul -1.9 04:26:17 10° WNW 04:29:21 32° N 04:32:26 10° ENE visible
10 Jul -1.0 00:30:39 10° ENE 00:30:39 10° ENE 00:30:41 10° ENE visible
10 Jul -3.0 02:03:34 41° WNW 02:04:20 52° NNW 02:07:38 10° ENE visible
10 Jul -1.9 03:38:31 10° WNW 03:41:35 31° N 03:44:38 10° ENE visible
11 Jul -3.3 01:17:04 60° NNE 01:17:04 60° NNE 01:20:00 10° ENE visible
11 Jul -1.9 02:50:44 10° WNW 02:53:47 32° N 02:56:52 10° ENE visible
11 Jul -2.4 04:27:51 10° WNW 04:31:05 43° NNE 04:34:19 10° E visible
12 Jul -2.6 00:30:20 33° ENE 00:30:20 33° ENE 00:32:20 10° ENE visible
12 Jul -2.1 02:03:12 12° WNW 02:06:00 35° N 02:09:08 10° ENE visible
12 Jul -2.1 03:40:10 10° WNW 03:43:20 36° N 03:46:28 10° E visible
12 Jul -2.3 23:42:57 26° E 23:42:57 26° E 23:44:38 10° ENE visible
13 Jul -2.5 01:15:44 15° W 01:18:14 41° NNW 01:21:27 10° ENE visible
13 Jul -1.9 02:52:26 10° WNW 02:55:31 32° N 02:58:36 10° ENE visible
13 Jul -3.6 04:29:17 10° WNW 04:32:40 76° NNE 04:36:01 10° ESE visible
13 Jul -3.1 22:50:41 10° SSW 22:53:45 33° SE 22:56:49 10° ENE visible
14 Jul -3.0 00:27:10 10° W 00:30:27 52° NNW 00:33:46 10° ENE visible
14 Jul -1.8 02:04:39 10° WNW 02:07:42 31° N 02:10:46 10° ENE visible
14 Jul -3.0 03:41:37 10° WNW 03:44:56 54° NNE 03:48:15 10° E visible
14 Jul -2.5 22:03:35 10° S 22:06:13 21° SE 22:08:50 10° E visible
14 Jul -3.6 23:39:22 10° WSW 23:42:44 71° NNW 23:46:05 10° ENE visible
15 Jul -1.9 01:16:48 10° WNW 01:19:53 32° N 01:22:57 10° ENE visible
15 Jul -2.5 02:53:56 10° WNW 02:57:10 42° NNE 03:00:24 10° E visible
15 Jul -3.6 04:30:46 10° WNW 04:34:01 48° SW 04:37:15 10° SE visible
15 Jul -3.9 22:51:40 10° WSW 22:55:01 80° SSE 22:58:24 10° ENE visible
